Regional Weather Roundup
Issued by NWS

Home | Current Version | Previous Version | Graphics & Text | Print | Product List | Glossary On
Versions: 1 2 3 4 5 6 7 8 9 10 11 12 13 14 15 16 17 18 19 20 21 22 23 24 25 26 27 28 29 30 31 32 33 34 35 36 37 38 39 40 41 42 43 44 45 46 47 48 49 50
000
ASUS43 KLOT 211300
RWRIL

ILLINOIS REGIONAL WEATHER ROUNDUP
NATIONAL WEATHER SERVICE CHICAGO/ROMEOVILLE IL
800 AM CDT THU AUG 21 2014

NOTE: "FAIR" INDICATES FEW OR NO CLOUDS BELOW 12,000 FEET WITH NO
SIGNIFICANT WEATHER AND/OR OBSTRUCTIONS TO VISIBILITY.

* THESE STATIONS ARE NOT UNDER NWS QUALITY CONTROL. THEY ALSO MAY NOT
  REPORT WEATHER SUCH AS PRECIPITATION OR FOG.

ILZ001-002-007-009-015-016-024-211400-
NORTHWEST ILLINOIS

CITY           SKY/WX    TMP DP  RH WIND       PRES   REMARKS
MOLINE         CLOUDY    74  69  85 S5        29.91R
STERLING*      CLOUDY    72  70  94 E8        29.96R
$$

ILZ003-004-008-010-011-017-018-211400-
NORTH CENTRAL ILLINOIS

CITY           SKY/WX    TMP DP  RH WIND       PRES   REMARKS
ROCKFORD       CLOUDY    70  67  90 SE8       29.95F THUNDER
$$

ILZ005-006-012>014-019>023-211400-
NORTHEAST ILLINOIS

CITY           SKY/WX    TMP DP  RH WIND       PRES   REMARKS
CHICAGO-OHARE  TSTM      71  67  87 SW7       29.97R
CHICAGO-MIDWAY TSTM      73  70  90 W15G23    29.98R FOG
AURORA         TSTM      70  67  90 E9        29.99R FOG
WAUKEGAN       LGT RAIN  70  67  90 VRB5      29.98R
DUPAGE AIRPORT LGT RAIN  70  68  93 S10       30.00R FOG
WHEELING       LGT RAIN  73  69  87 SW5       29.99R
NORTHERLY ISL    N/A     72  69  90 SW7         N/A
$$

LMZ740>746-211400-
SOUTHERN LAKE MICHIGAN

STATION/POSITION SKY/WX   TEMP    WIND        PRES    VSBY  WAVE
                          AIR SEA DIR/SP/G                  HT/PER
                          (F)     (DEG/KT/KT) (MB)    (MI)  (FT/S)
SOUTHERN BUOY              68 68   80/  4/  6 1013.5F         0
WAUKEGAN HARBOR            71     290/  7/  9   N/A
HARRISON CRIB              71     190/  8/ 10   N/A
BURNHAM HARBOR             72     240/  6/  8   N/A
CALUMET HARBOR             71     200/  4/  6 1013.5R
BURNS HARBOR               71     200/  8/ 17   N/A
MICHIGAN CITY              71     170/ 14/ 18   N/A
MICHIGAN CITY 6N           71 71  200/ 10/ 12   N/A           1/ 2
ST. JOSEPH                 71 71  170/  6/  8   N/A           1/ 3
$$

ILZ025>027-034>036-040-047-049-050-058-095>099-211400-
WEST-CENTRAL ILLINOIS

CITY           SKY/WX    TMP DP  RH WIND       PRES   REMARKS
QUINCY         SUNNY     76  68  76 SW9       29.95R
MACOMB*        MOSUNNY   73  70  89 SW5       29.95S
$$

ILZ028>032-037-038-041>044-048-051>054-059>061-211400-
CENTRAL ILLINOIS

CITY           SKY/WX    TMP DP  RH WIND       PRES   REMARKS
DECATUR        MOSUNNY   76  72  87 SW7       29.99R
PEORIA         MOSUNNY   75  70  84 S5        29.95R
SPRINGFIELD    SUNNY     76  71  85 S7        29.97R
TAYLORVILLE    NOT AVBL
$$

ILZ033-039-045-046-055>057-062-063-211400-
EAST-CENTRAL ILLINOIS

CITY           SKY/WX    TMP DP  RH WIND       PRES   REMARKS
CHAMPAIGN      PTSUNNY   74  72  93 SW7       29.99R
MATTOON        MOSUNNY   75  71  87 S8        30.00R
$$

ILZ079-100>102-211400-
SOUTHWEST ILLINOIS

CITY           SKY/WX    TMP DP  RH WIND       PRES   REMARKS
ALTON          MOSUNNY   75  73  94 SW8       30.00R
BELLEVILLE     MOSUNNY   76  76  99 VRB2      30.00R
CAHOKIA*         N/A     77  72  84 CALM      30.00R
$$

ILZ064>066-069>071-074>076-080>082-084>086-088>090-092>094-211400-
SOUTH-CENTRAL ILLINOIS

CITY           SKY/WX    TMP DP  RH WIND       PRES   REMARKS
CARBONDALE     MOSUNNY   78  73  84 SW7       30.03R HX  81
MARION         MOSUNNY   79  75  89 S7        30.04R HX  82
MT. VERNON     SUNNY     75  72  88 SW8       30.03R
SALEM*         SUNNY     78  75  90 SW6       30.01R HX  80
$$

ILZ067-068-072-073-078-083-087-091-211400-
SOUTHEAST ILLINOIS

CITY           SKY/WX    TMP DP  RH WIND       PRES   REMARKS
LAWRENCEVILLE  MOSUNNY   76  72  87 SW9       30.02R
HARRISBURG*    SUNNY     77  75  95 SW5       30.04S
ROBINSON*      MOSUNNY   77  74  90 SW6       30.01R
$$

ABBREVIATIONS USED IN REMARKS
   TC - TEMPERATURE IN CELSIUS
  WCI - WIND CHILL INDEX
   HX - HEAT INDEX
  VSB - VISIBILITY
$$



USA.gov is the U.S. government's official web portal to all federal, state and local government web resources and services.